FW3813 Weather Reports


time (UTC)temp
C
wind
direction
speed
KPH
gust
KPH
rain 1hr
cm
rain 24hr
cm
rain mn
cm
humidity
%
barometer
mb
20260506002601 20 152 12.9 40.2 0.00 0.00 0.00 34 1017.5
20260506002100 19 317 14.5 35.4 0.00 0.00 0.00 34 1017.5
20260506001625 20 341 17.7 37.0 0.00 0.00 0.00 34 1017.4
20260506001102 19 344 19.3 37.0 0.00 0.00 0.00 35 1017.4
20260506000601 18 265 17.7 33.8 0.00 0.00 0.00 33 1017.6
20260506000110 18 273 14.5 35.4 0.00 0.00 0.00 33 1017.7
20260505235601 19 329 14.5 35.4 0.00 0.00 0.00 33 1017.7
20260505235109 18 319 12.9 35.4 0.00 0.00 0.00 33 1017.5
20260505234613 18 61 12.9 35.4 0.00 0.00 0.00 35 1017.7
20260505234059 18 293 9.7 33.8 0.00 0.00 0.00 35 1017.7
20260505233602 17 344 17.7 33.8 0.00 0.00 0.00 33 1017.8
20260505233100 18 205 16.1 33.8 0.00 0.00 0.00 34 1017.7
20260505232601 18 334 14.5 25.7 0.00 0.00 0.00 34 1017.7
20260505232059 18 334 9.7 30.6 0.00 0.00 0.00 34 1017.7
20260505231600 18 223 8.0 30.6 0.00 0.00 0.00 35 1017.7
20260505231100 18 293 17.7 30.6 0.00 0.00 0.00 34 1017.8
20260505230603 18 292 6.4 24.1 0.00 0.00 0.00 34 1017.7
20260505225603 18 286 9.7 27.4 0.00 0.00 0.00 34 1017.9
20260505225103 18 305 11.3 27.4 0.00 0.00 0.00 35 1017.9
20260505224601 18 270 11.3 22.5 0.00 0.00 0.00 34 1018.0
20260505224101 18 335 8.0 25.7 0.00 0.00 0.00 35 1018.1
20260505223602 18 9 4.8 25.7 0.00 0.00 0.00 35 1018.2
20260505223113 17 287 9.7 25.7 0.00 0.00 0.00 37 1018.2
20260505222601 18 302 11.3 24.1 0.00 0.00 0.00 34 1018.1
20260505222100 18 282 6.4 22.5 0.00 0.00 0.00 36 1017.9
20260505221603 17 265 11.3 22.5 0.00 0.00 0.00 37 1018.0
20260505221101 17 325 8.0 17.7 0.00 0.00 0.00 39 1018.1
20260505220601 16 31 8.0 17.7 0.00 0.00 0.00 41 1018.1
20260505215602 16 332 8.0 19.3 0.00 0.00 0.00 42 1018.2
20260505215101 16 277 8.0 19.3 0.00 0.00 0.00 42 1018.2
20260505214604 16 311 9.7 17.7 0.00 0.00 0.00 42 1018.1
20260505214103 16 312 6.4 20.9 0.00 0.00 0.00 42 1018.1
20260505213603 16 291 9.7 20.9 0.00 0.00 0.00 42 1018.2
20260505213101 16 305 8.0 20.9 0.00 0.00 0.00 41 1018.3
20260505212600 16 9 6.4 22.5 0.00 0.00 0.00 41 1018.3
20260505212100 16 227 9.7 24.1 0.00 0.00 0.00 42 1018.3
20260505211634 17 309 6.4 24.1 0.00 0.00 0.00 41 1018.3
20260505211102 16 11 11.3 24.1 0.00 0.00 0.00 40 1018.2
20260505210604 17 209 9.7 24.1 0.00 0.00 0.00 39 1018.2
20260505210100 17 23 9.7 24.1 0.00 0.00 0.00 37 1018.2
20260505205602 17 337 8.0 22.5 0.00 0.00 0.00 39 1018.2
20260505205101 17 331 8.0 24.1 0.00 0.00 0.00 39 1018.4
20260505204601 16 309 9.7 24.1 0.00 0.00 0.00 39 1018.2
20260505204102 16 300 9.7 24.1 0.00 0.00 0.00 40 1018.2
20260505203602 16 157 6.4 27.4 0.00 0.00 0.00 38 1018.2
20260505203126 16 335 11.3 27.4 0.00 0.00 0.00 38 1018.3
20260505202602 17 298 11.3 24.1 0.00 0.00 0.00 37 1018.2
20260505202102 17 292 9.7 24.1 0.00 0.00 0.00 37 1018.2
20260505201600 17 331 14.5 24.1 0.00 0.00 0.00 37 1018.2
20260505201102 18 300 6.4 24.1 0.00 0.00 0.00 36 1018.1
20260505200601 17 82 9.7 24.1 0.00 0.00 0.00 37 1018.1
20260505200101 17 302 9.7 24.1 0.00 0.00 0.00 35 1018.1
20260505195602 17 284 8.0 22.5 0.00 0.00 0.00 40 1018.1
20260505195058 17 9 11.3 35.4 0.00 0.00 0.00 38 1018.1
20260505194558 16 252 11.3 35.4 0.00 0.00 0.00 42 1018.1
20260505194101 17 298 8.0 25.7 0.00 0.00 0.00 39 1018.1
20260505193602 16 305 12.9 25.7 0.00 0.00 0.00 41 1018.1
20260505193059 16 11 8.0 22.5 0.00 0.00 0.00 43 1018.2
20260505192604 16 298 9.7 22.5 0.00 0.00 0.00 42 1018.2
20260505192102 16 292 11.3 22.5 0.00 0.00 0.00 43 1018.2
20260505191602 16 250 8.0 22.5 0.00 0.00 0.00 44 1018.1
20260505191103 16 312 8.0 20.9 0.00 0.00 0.00 43 1018.3
20260505190603 16 330 8.0 24.1 0.00 0.00 0.00 46 1018.2
20260505190059 16 311 11.3 24.1 0.00 0.00 0.00 46 1018.3
20260505185558 15 312 6.4 24.1 0.00 0.00 0.00 47 1018.2
20260505185058 15 292 11.3 22.5 0.00 0.00 0.00 47 1018.1
20260505184601 15 269 8.0 24.1 0.00 0.00 0.00 48 1018.3
20260505184058 15 34 12.9 24.1 0.00 0.00 0.00 46 1018.3
20260505183557 15 280 8.0 25.7 0.00 0.00 0.00 49 1018.1
20260505183106 15 342 8.0 25.7 0.00 0.00 0.00 49 1018.2
20260505182605 15 317 9.7 24.1 0.00 0.00 0.00 49 1018.2
20260505182103 15 342 11.3 24.1 0.00 0.00 0.00 48 1018.2
20260505181559 15 337 8.0 22.5 0.00 0.00 0.00 48 1018.1
20260505181103 15 347 12.9 20.9 0.00 0.00 0.00 48 1018.1
20260505180558 15 292 9.7 19.3 0.00 0.00 0.00 50 1018.0
20260505180110 14 238 4.8 17.7 0.00 0.00 0.00 49 1017.9
20260505175558 15 284 6.4 17.7 0.00 0.00 0.00 49 1017.9
20260505175104 14 265 6.4 22.5 0.00 0.00 0.00 50 1018.0
20260505174558 15 327 8.0 22.5 0.00 0.00 0.00 50 1017.9
20260505174057 15 242 9.7 22.5 0.00 0.00 0.00 50 1017.8
20260505173603 13 238 8.0 19.3 0.00 0.00 0.00 54 1017.7
20260505173100 13 289 9.7 19.3 0.00 0.00 0.00 53 1017.7
20260505172600 13 335 6.4 19.3 0.00 0.00 0.00 53 1017.8
20260505172057 13 315 8.0 16.1 0.00 0.00 0.00 55 1017.7
20260505171601 13 275 6.4 17.7 0.00 0.00 0.00 54 1017.6
20260505171058 13 277 6.4 19.3 0.00 0.00 0.00 56 1017.6
20260505170557 12 291 4.8 19.3 0.00 0.00 0.00 57 1017.7
20260505170059 12 344 6.4 19.3 0.00 0.00 0.00 58 1017.6
20260505165601 12 39 4.8 20.9 0.00 0.00 0.00 59 1017.6
20260505165101 12 309 8.0 20.9 0.00 0.00 0.00 58 1017.6
20260505164603 12 337 6.4 20.9 0.00 0.00 0.00 59 1017.5
20260505164104 11 338 6.4 20.9 0.00 0.00 0.00 58 1017.6
20260505163600 11 347 8.0 19.3 0.00 0.00 0.00 58 1017.5
20260505163059 11 310 9.7 19.3 0.00 0.00 0.00 58 1017.5
20260505162559 11 334 3.2 14.5 0.00 0.00 0.00 57 1017.3
20260505162102 11 344 4.8 19.3 0.00 0.00 0.00 57 1017.3
20260505161558 11 63 6.4 19.3 0.00 0.00 0.00 57 1017.2
20260505161100 11 23 6.4 19.3 0.00 0.00 0.00 58 1017.2
20260505160558 11 261 4.8 17.7 0.00 0.00 0.00 58 1017.1
20260505153100 11 319 8.0 20.9 0.00 0.00 0.00 59 1017.0
20260505152604 10 43 6.4 19.3 0.00 0.00 0.00 59 1017.0
20260505152102 10 247 4.8 16.1 0.00 0.00 0.00 60 1017.0
20260505151601 10 302 8.0 17.7 0.00 0.00 0.00 60 1017.0
20260505151102 10 302 8.0 17.7 0.00 0.00 0.00 61 1016.9
20260505150601 10 344 6.4 14.5 0.00 0.00 0.00 61 1017.0
20260505150104 10 329 4.8 16.1 0.00 0.00 0.00 61 1017.0
20260505140557 8 316 3.2 11.3 0.00 0.00 0.00 62 1016.0
20260505140123 8 325 6.4 11.3 0.00 0.00 0.00 61 1016.0
20260505124602 6 15 6.4 14.5 0.00 0.00 0.00 65 1015.5
20260505124059 6 319 4.8 8.0 0.00 0.00 0.00 65 1015.5
20260505123601 6 323 4.8 8.0 0.00 0.00 0.00 64 1015.5
20260505123059 6 336 4.8 12.9 0.00 0.00 0.00 63 1015.5
20260505122603 6 325 4.8 12.9 0.00 0.00 0.00 63 1015.4
20260505122101 6 309 3.2 9.7 0.00 0.00 0.00 61 1015.6
20260505121601 6 302 4.8 9.7 0.00 0.00 0.00 61 1015.5
20260505121101 5 323 3.2 8.0 0.00 0.00 0.00 61 1015.5
20260505120601 5 325 1.6 4.8 0.00 0.00 0.00 61 1015.5
20260505120117 5 234 0.0 6.4 0.00 0.00 0.00 61 1015.5
20260505115600 5 221 1.6 6.4 0.00 0.00 0.00 61 1015.4
20260505115101 5 0 1.6 6.4 0.00 0.00 0.00 61 1015.3
20260505114601 5 254 1.6 9.7 0.00 0.00 0.00 61 1015.3
20260505114101 6 238 1.6 9.7 0.00 0.00 0.00 61 1015.2
20260505113601 6 332 4.8 9.7 0.00 0.00 0.00 61 1015.2
20260505113105 6 325 4.8 12.9 0.00 0.00 0.00 62 1015.3
20260505112558 6 344 6.4 12.9 0.00 0.00 0.00 62 1015.3
20260505112057 6 334 4.8 14.5 0.00 0.00 0.00 62 1015.2
20260505111605 6 335 6.4 14.5 0.00 0.00 0.00 63 1015.3
20260505111057 6 337 6.4 14.5 0.00 0.00 0.00 64 1015.3
20260505110557 6 325 4.8 12.9 0.00 0.00 0.00 65 1015.3
20260505102058 6 0 3.2 12.9 0.00 0.00 0.00 66 1015.4
20260505101604 6 0 3.2 11.3 0.00 0.00 0.00 65 1015.4
20260505101059 6 315 6.4 11.3 0.00 0.00 0.00 66 1015.3
20260505100559 6 314 6.4 8.0 0.00 0.00 0.00 64 1015.3
20260505100101 6 335 4.8 8.0 0.00 0.00 0.00 63 1015.3
20260505095559 6 302 3.2 9.7 0.00 0.00 0.00 64 1015.2
20260505095100 6 310 3.2 9.7 0.00 0.00 0.00 63 1015.1
20260505094602 6 288 1.6 4.8 0.00 0.00 0.00 65 1015.1
20260505094103 6 291 0.0 9.7 0.00 0.00 0.00 66 1015.0
20260505093559 6 257 1.6 9.7 0.00 0.00 0.00 67 1015.1
20260505093059 6 17 1.6 4.8 0.00 0.00 0.00 66 1015.2
20260505092559 6 291 1.6 4.8 0.00 0.00 0.00 67 1015.2
20260505092059 6 229 1.6 6.4 0.00 0.00 0.00 67 1015.1
20260505091611 6 232 1.6 8.0 0.00 0.00 0.00 67 1015.3
20260505091058 6 280 3.2 8.0 0.00 0.00 0.00 66 1015.1
20260505090559 6 311 1.6 12.9 0.00 0.00 0.00 65 1015.3
20260505085603 7 298 3.2 9.7 0.00 0.00 0.00 65 1015.3
20260505085059 7 300 1.6 8.0 0.00 0.00 0.00 64 1015.3
20260505084607 7 298 4.8 8.0 0.00 0.00 0.00 65 1015.3
20260505084059 7 265 4.8 8.0 0.00 0.00 0.00 65 1015.5
20260505083603 7 298 4.8 8.0 0.00 0.00 0.00 65 1015.5
20260505083107 7 291 3.2 8.0 0.00 0.00 0.00 66 1015.4
20260505082559 7 250 3.2 8.0 0.00 0.00 0.00 66 1015.4
20260505082058 7 282 3.2 8.0 0.00 0.00 0.00 66 1015.4
20260505081558 7 250 3.2 9.7 0.00 0.00 0.00 67 1015.5
20260505081059 7 279 4.8 9.7 0.00 0.00 0.00 67 1015.4
20260505080558 7 302 3.2 11.3 0.00 0.00 0.00 66 1015.5
20260505075559 7 284 4.8 9.7 0.00 0.00 0.00 66 1015.5
20260505075059 7 293 3.2 9.7 0.00 0.00 0.00 66 1015.6
20260505074559 7 309 4.8 16.1 0.00 0.00 0.00 66 1015.7
20260505074057 7 286 6.4 16.1 0.00 0.00 0.00 66 1015.7
20260505073557 7 321 6.4 11.3 0.00 0.00 0.00 66 1015.7
20260505073103 7 298 6.4 11.3 0.00 0.00 0.00 66 1015.7
20260505072605 7 287 4.8 11.3 0.00 0.00 0.00 67 1015.7
20260505072100 7 282 4.8 11.3 0.00 0.00 0.00 67 1015.6
20260505071601 7 265 4.8 11.3 0.00 0.00 0.00 67 1015.5
20260505071058 7 275 3.2 11.3 0.00 0.00 0.00 67 1015.5
20260505070601 7 238 4.8 12.9 0.00 0.00 0.00 67 1015.5
20260505070106 7 265 3.2 12.9 0.00 0.00 0.00 67 1015.4
20260505065558 7 272 3.2 12.9 0.00 0.00 0.00 67 1015.4
20260505065058 7 242 1.6 9.7 0.00 0.00 0.00 67 1015.3
20260505064559 7 254 3.2 11.3 0.00 0.00 0.00 67 1015.4
20260505064057 7 325 3.2 11.3 0.00 0.00 0.00 67 1015.2
20260505063557 7 269 3.2 11.3 0.00 0.00 0.00 66 1015.3
20260505063103 7 265 3.2 12.9 0.00 0.00 0.00 66 1015.3
20260505062559 7 286 4.8 12.9 0.00 0.00 0.00 66 1015.3
20260505062101 7 291 4.8 12.9 0.00 0.00 0.00 65 1015.3
20260505061630 7 284 6.4 12.9 0.00 0.00 0.00 65 1015.3
20260505061057 8 297 6.4 17.7 0.00 0.00 0.00 65 1015.3
20260505060559 8 309 4.8 17.7 0.00 0.00 0.00 64 1015.4
20260505060103 8 280 6.4 16.1 0.00 0.00 0.00 64 1015.4
20260505055557 8 286 6.4 14.5 0.00 0.00 0.00 64 1015.5
20260505055058 8 273 4.8 14.5 0.00 0.00 0.00 65 1015.5
20260505054559 8 309 6.4 16.1 0.00 0.00 0.00 64 1015.4
20260505054057 8 257 4.8 16.1 0.00 0.00 0.00 64 1015.5
20260505053557 8 279 4.8 14.5 0.00 0.00 0.00 64 1015.6
20260505053059 8 259 3.2 14.5 0.00 0.00 0.00 64 1015.7
20260505052557 8 309 4.8 17.7 0.00 0.00 0.00 63 1015.8
20260505052058 8 293 6.4 17.7 0.00 0.00 0.00 62 1015.8
20260505051558 8 304 6.4 14.5 0.00 0.00 0.00 62 1015.8
20260505051058 8 288 4.8 17.7 0.00 0.00 0.00 62 1015.6
20260505050558 8 300 4.8 17.7 0.00 0.00 0.00 61 1015.5
20260505041605 10 286 9.7 30.6 0.00 0.00 0.00 52 1015.3
20260505041058 10 337 8.0 27.4 0.00 0.00 0.00 51 1015.1
20260505040558 11 307 8.0 27.4 0.00 0.00 0.00 48 1015.1
20260505040104 11 289 12.9 27.4 0.00 0.00 0.00 44 1014.9
20260505035557 11 310 6.4 22.5 0.00 0.00 0.00 42 1014.8
20260505035057 11 265 6.4 22.5 0.00 0.00 0.00 42 1014.9
20260505034609 11 327 8.0 22.5 0.00 0.00 0.00 42 1014.7
20260505034059 12 296 4.8 19.3 0.00 0.00 0.00 42 1014.6
20260505033557 12 259 4.8 14.5 0.00 0.00 0.00 42 1014.5
20260505033105 12 257 6.4 19.3 0.00 0.00 0.00 42 1014.5
20260505032557 12 329 8.0 19.3 0.00 0.00 0.00 42 1014.3
20260505032058 12 314 4.8 22.5 0.00 0.00 0.00 42 1014.3
20260505031558 12 247 8.0 22.5 0.00 0.00 0.00 41 1014.3
20260505031057 13 330 6.4 25.7 0.00 0.00 0.00 41 1014.1
20260505030558 13 277 4.8 25.7 0.00 0.00 0.00 42 1014.1
20260505030104 13 310 9.7 32.2 0.00 0.00 0.00 41 1014.1
20260505025557 13 265 8.0 33.8 0.00 0.00 0.00 41 1013.9
20260505025057 13 268 14.5 33.8 0.00 0.00 0.00 40 1013.8
20260505024557 14 295 6.4 32.2 0.00 0.00 0.00 40 1013.7
20260505024057 14 266 12.9 32.2 0.00 0.00 0.00 41 1013.7
20260505023557 15 323 11.3 30.6 0.00 0.00 0.00 42 1013.9
20260505023058 15 347 8.0 27.4 0.00 0.00 0.00 42 1013.9
20260505022558 15 293 8.0 33.8 0.00 0.00 0.00 42 1013.8
20260505022102 15 304 9.7 33.8 0.00 0.00 0.00 42 1013.7
20260505021601 15 22 8.0 24.1 0.00 0.00 0.00 41 1013.7
20260505021059 15 309 11.3 33.8 0.00 0.00 0.00 41 1013.6
20260505020601 16 275 11.3 33.8 0.00 0.00 0.00 40 1013.3
20260505020058 16 287 12.9 33.8 0.00 0.00 0.00 40 1013.5
20260505015558 16 250 6.4 27.4 0.00 0.00 0.00 39 1013.5
20260505015058 16 255 11.3 38.6 0.00 0.00 0.00 38 1013.5
20260505014610 16 270 14.5 38.6 0.00 0.00 0.00 38 1013.5
20260505014057 17 325 6.4 30.6 0.00 0.00 0.00 38 1013.7
20260505013557 16 342 11.3 30.6 0.00 0.00 0.00 37 1013.7
20260505013103 17 334 6.4 25.7 0.00 0.00 0.00 37 1013.8
20260505012557 17 317 12.9 25.7 0.00 0.00 0.00 36 1013.8
20260505012101 17 273 9.7 25.7 0.00 0.00 0.00 35 1013.8
20260505011618 17 211 6.4 25.7 0.00 0.00 0.00 35 1013.9
20260505011059 17 277 8.0 22.5 0.00 0.00 0.00 34 1014.1
20260505010557 16 302 8.0 22.5 0.00 0.00 0.00 35 1014.0
20260505010107 16 261 8.0 22.5 0.00 0.00 0.00 34 1014.1
20260505005558 16 219 6.4 22.5 0.00 0.00 0.00 35 1014.0
20260505005101 16 93 8.0 27.4 0.00 0.00 0.00 34 1014.2
20260505004601 17 265 6.4 27.4 0.00 0.00 0.00 31 1014.0
20260505004058 18 224 11.3 27.4 0.00 0.00 0.00 30 1014.1
20260505003557 18 282 6.4 20.9 0.00 0.00 0.00 31 1014.1
20260505003058 18 192 4.8 27.4 0.00 0.00 0.00 32 1014.2